TimeCST,TemperatureF,Dew PointF,Humidity,Sea Level PressureIn,VisibilityMPH,Wind Direction,Wind SpeedMPH,Gust SpeedMPH,PrecipitationIn,Events,Conditions,WindDirDegrees,DateUTC
12:52 AM,-0.9,-6.0,79,30.31,10.0,Calm,Calm,-,N/A,,Partly Cloudy,0,2014-01-08 06:52:00
1:52 AM,-2.0,-6.0,83,30.32,10.0,Calm,Calm,-,N/A,,Mostly Cloudy,0,2014-01-08 07:52:00
2:52 AM,-2.9,-9.0,75,30.35,10.0,Calm,Calm,-,N/A,,Partly Cloudy,0,2014-01-08 08:52:00
3:52 AM,-6.0,-9.0,87,30.35,10.0,Calm,Calm,-,N/A,,Clear,0,2014-01-08 09:52:00
4:52 AM,-5.1,-9.0,83,30.36,10.0,Calm,Calm,-,N/A,,Overcast,0,2014-01-08 10:52:00
5:52 AM,-0.0,-5.1,79,30.37,10.0,Calm,Calm,-,N/A,,Overcast,0,2014-01-08 11:52:00
6:52 AM,3.0,-2.0,80,30.35,10.0,Calm,Calm,-,N/A,,Overcast,0,2014-01-08 12:52:00
7:52 AM,3.0,-2.0,80,30.36,10.0,SE,4.6,-,N/A,,Overcast,130,2014-01-08 13:52:00
8:52 AM,3.9,-2.0,76,30.37,10.0,East,4.6,-,N/A,,Overcast,90,2014-01-08 14:52:00
9:52 AM,5.0,-0.9,76,30.38,10.0,East,8.1,-,N/A,,Overcast,100,2014-01-08 15:52:00
10:52 AM,6.1,-0.0,76,30.38,10.0,SE,9.2,-,N/A,,Overcast,130,2014-01-08 16:52:00
11:52 AM,8.1,1.0,73,30.37,10.0,SSE,11.5,-,N/A,,Overcast,150,2014-01-08 17:52:00
12:52 PM,8.1,1.9,76,30.34,10.0,SE,13.8,-,N/A,,Overcast,140,2014-01-08 18:52:00
1:25 PM,8.6,1.4,73,30.19,10.0,SSE,13.8,-,N/A,,Overcast,150,2014-01-08 19:25:00
1:52 PM,9.0,1.9,73,30.31,10.0,SSE,13.8,-,N/A,,Overcast,150,2014-01-08 19:52:00
2:52 PM,10.0,3.0,73,30.29,10.0,SE,16.1,-,N/A,,Overcast,140,2014-01-08 20:52:00
3:52 PM,10.0,3.0,73,30.28,10.0,SE,17.3,-,N/A,,Overcast,140,2014-01-08 21:52:00
4:52 PM,10.0,3.0,73,30.25,10.0,SSE,21.9,-,N/A,,Overcast,150,2014-01-08 22:52:00
5:52 PM,10.0,3.9,76,30.23,10.0,SSE,16.1,-,N/A,,Overcast,150,2014-01-08 23:52:00
6:21 PM,10.4,3.2,73,30.09,10.0,SSE,18.4,-,N/A,,Overcast,150,2014-01-09 00:21:00
6:52 PM,10.0,5.0,80,30.21,10.0,SSE,16.1,-,N/A,,Overcast,160,2014-01-09 00:52:00
7:52 PM,12.0,6.1,77,30.18,10.0,SSE,19.6,-,N/A,,Overcast,150,2014-01-09 01:52:00
8:23 PM,12.2,6.8,79,30.05,10.0,SSE,17.3,-,N/A,,Overcast,160,2014-01-09 02:23:00
8:52 PM,12.9,8.1,81,30.15,10.0,SSE,15.0,-,N/A,,Overcast,160,2014-01-09 02:52:00
9:52 PM,12.9,8.1,81,30.12,10.0,SSE,15.0,-,N/A,,Mostly Cloudy,160,2014-01-09 03:52:00
10:52 PM,15.1,10.0,80,30.08,10.0,SSE,15.0,-,N/A,,Overcast,150,2014-01-09 04:52:00
11:52 PM,18.0,12.9,81,30.04,10.0,SSE,13.8,-,N/A,,Overcast,160,2014-01-09 05:52:00